Weather History for Jasper, TX

Change the Weather History Date:

Saturday, June 15, 2013

  Actual Average (KLFK) Record (KLFK)
Temperature  
Mean Temperature 82 °F 80 °F  
Max Temperature 92 °F 90 °F 102 °F (1998)
Min Temperature 71 °F 70 °F 56 °F (1933)
Degree Days  
Heating Degree Days 0 0  
Month to date heating degree days 0  
Since 1 June heating degree days 0  
Since 1 July heating degree days 1917  
Cooling Degree Days 16 15  
Month to date cooling degree days 211  
Year to date cooling degree days 680  
Since 1 June cooling degree days 211  
Growing Degree Days 32 (Base 50)    
Moisture  
Dew Point 74 °F    
Average Humidity 77    
Maximum Humidity 95    
Minimum Humidity 59    
Precipitation  
Precipitation 0.00 in 0.16 in 2.20 in (1971)
Month to date precipitation 2.36  
Year to date precipitation 21.88  
Snow  
Snow 0.00 in - - ()
Month to date snowfall  
Since 1 June snowfall  
Since 1 July snowfall  
Snow Depth -    
Sea Level Pressure  
Sea Level Pressure 29.98 in    
Wind  
Wind Speed 3 mph (SE)    
Max Wind Speed 12 mph    
Max Gust Speed -    
Visibility 9 miles    
Events Rain    
T = Trace of Precipitation, MM = Missing Value Source: NWS Daily Summary

Daily Weather History Graph

Daily Weather History Graph

Search for Another Location

Airport:

Trip Planner

Search our weather history database for the weather conditions in past years. The results will help you decide how hot, cold, wet, or windy it might be!

Date:

Astronomy

Jun. 15, 2013 Rise Set
Actual Time 6:12 AM CDT 8:21 PM CDT
Civil Twilight 5:44 AM CDT 8:48 PM CDT
Nautical Twilight 5:10 AM CDT 9:22 PM CDT
Astronomical Twilight 4:34 AM CDT 9:59 PM CDT
Moon 12:24 PM CDT (6/15) 12:18 AM CDT (6/15)
Length of Visible Light 15h 04m
Length of Day
14h 08m
Waxing Crescent, 40% of the Moon is Illuminated
Jun 15
Waxing Crescent
Jun 16
First Quarter
Jun 23
Full
Jun 29
Last Quarter
Jul 8
New

Hourly Weather History & Observations

Time (CDT) Temp. Heat Index Dew Point Humidity Pressure Visibility Wind Dir Wind Speed Gust Speed Precip Events Conditions
12:15 AM - - - N/A% 29.98 in 10.0 mi NE 8.1 mph - N/A   Unknown
12:35 AM 71.6 °F - 69.4 °F 93% 29.97 in 10.0 mi North 11.5 mph - N/A Rain Light Rain
12:55 AM 71.4 °F - 68.9 °F 92% 29.95 in 10.0 mi North 5.8 mph - N/A Rain Light Rain
1:15 AM 71.2 °F - 69.1 °F 93% 29.93 in 10.0 mi NNW 4.6 mph - N/A Rain Light Rain
1:35 AM 71.1 °F - 68.9 °F 93% 29.97 in 10.0 mi SSW 4.6 mph - N/A   Light Drizzle
1:55 AM 71.4 °F - 69.1 °F 92% 29.96 in 10.0 mi NNE 3.5 mph - N/A   Clear
2:15 AM 71.6 °F - 69.4 °F 93% 29.98 in 10.0 mi SSW 4.6 mph - N/A   Clear
2:35 AM 71.8 °F - 69.6 °F 93% 29.96 in 10.0 mi ENE 8.1 mph - N/A   Scattered Clouds
2:55 AM 73.0 °F - 70.3 °F 91% 29.98 in 10.0 mi Calm Calm - N/A   Scattered Clouds
3:15 AM 72.7 °F - 70.7 °F 93% 29.98 in 10.0 mi Calm Calm - N/A   Mostly Cloudy
3:35 AM 73.0 °F - 70.9 °F 93% 29.97 in 7.0 mi Calm Calm - N/A   Scattered Clouds
3:55 AM 73.6 °F - 71.4 °F 93% 29.98 in 10.0 mi Calm Calm - N/A   Scattered Clouds
4:15 AM 73.6 °F - 71.6 °F 93% 29.97 in 7.0 mi Calm Calm - N/A   Scattered Clouds
4:35 AM 73.4 °F - 71.6 °F 94% 29.97 in 7.0 mi Calm Calm - N/A   Mostly Cloudy
4:55 AM 73.4 °F - 71.6 °F 94% 29.97 in 7.0 mi Calm Calm - N/A   Clear
5:15 AM 73.2 °F - 71.6 °F 95% 29.97 in 7.0 mi Calm Calm - N/A   Clear
5:35 AM 72.9 °F - 71.2 °F 95% 29.97 in 7.0 mi Calm Calm - N/A   Clear
5:55 AM 72.7 °F - 71.1 °F 95% 29.98 in 10.0 mi Calm Calm - N/A   Clear
6:15 AM 72.5 °F - 70.9 °F 95% 29.99 in 7.0 mi Calm Calm - N/A   Clear
6:35 AM 72.5 °F - 70.7 °F 94% 30.00 in 7.0 mi Calm Calm - N/A   Clear
6:55 AM 72.7 °F - 70.7 °F 93% 30.00 in 10.0 mi Calm Calm - N/A   Clear
7:15 AM 73.9 °F - 71.1 °F 91% 30.00 in 10.0 mi Calm Calm - N/A   Clear
7:35 AM 75.9 °F - 71.8 °F 87% 30.01 in 10.0 mi Calm Calm - N/A   Clear
7:55 AM 77.7 °F - 72.0 °F 82% 30.01 in 7.0 mi Calm Calm - N/A   Clear
8:15 AM 78.3 °F - 72.1 °F 81% 30.02 in 7.0 mi East 3.5 mph - N/A   Clear
8:35 AM 79.2 °F - 72.0 °F 78% 30.03 in 5.0 mi East 5.8 mph - N/A   Haze
8:55 AM 80.4 °F 84.4 °F 72.0 °F 75% 30.03 in 10.0 mi East 5.8 mph - N/A   Clear
9:15 AM 81.5 °F 85.9 °F 71.8 °F 72% 30.04 in 10.0 mi East 5.8 mph - N/A   Clear
9:35 AM 82.2 °F 87.1 °F 72.0 °F 71% 30.04 in 10.0 mi Calm Calm - N/A   Clear
9:55 AM 82.8 °F 88.2 °F 72.3 °F 71% 30.04 in 10.0 mi Calm Calm - N/A   Clear
10:15 AM 83.7 °F 89.7 °F 72.9 °F 70% 30.03 in 10.0 mi SE 4.6 mph - N/A   Clear
10:35 AM 84.6 °F 91.4 °F 73.2 °F 69% 30.03 in 10.0 mi Calm Calm - N/A   Clear
10:55 AM 85.1 °F 92.2 °F 73.4 °F 68% 30.03 in 10.0 mi Calm Calm - N/A   Clear
11:15 AM 85.8 °F 93.4 °F 73.6 °F 67% 30.03 in 10.0 mi Calm Calm - N/A   Clear
11:35 AM 86.4 °F 94.2 °F 73.9 °F 66% 30.02 in 10.0 mi Calm Calm - N/A   Clear
11:55 AM 87.3 °F 96.3 °F 74.8 °F 66% 30.02 in 10.0 mi Calm Calm - N/A   Clear
12:15 PM 88.0 °F 97.5 °F 74.7 °F 65% 30.01 in 10.0 mi NE 3.5 mph - N/A   Clear
12:35 PM 88.5 °F 97.8 °F 74.7 °F 63% 30.01 in 10.0 mi Calm Calm - N/A   Clear
12:55 PM 88.7 °F 98.7 °F 75.2 °F 64% 30.01 in 10.0 mi Calm Calm - N/A   Clear
1:15 PM 89.2 °F 99.5 °F 75.2 °F 63% 30.00 in 10.0 mi Calm Calm - N/A   Clear
1:35 PM 90.0 °F 100.7 °F 75.2 °F 62% 30.00 in 10.0 mi Calm Calm - N/A   Clear
1:55 PM 90.1 °F 100.6 °F 75.0 °F 61% 29.99 in 10.0 mi Calm Calm - N/A   Clear
2:15 PM 91.0 °F 103.5 °F 76.3 °F 62% 29.99 in 10.0 mi South 3.5 mph - N/A   Clear
2:35 PM 90.7 °F 102.6 °F 76.3 °F 62% 29.99 in 10.0 mi Calm Calm - N/A   Scattered Clouds
2:55 PM 90.9 °F 103.7 °F 76.5 °F 63% 29.98 in 10.0 mi SW 3.5 mph - N/A   Clear
3:15 PM 90.5 °F 102.7 °F 76.3 °F 63% 29.98 in 10.0 mi Calm Calm - N/A   Scattered Clouds
3:35 PM 91.2 °F 104.0 °F 76.6 °F 62% 29.98 in 10.0 mi WSW 3.5 mph - N/A   Scattered Clouds
3:55 PM 91.9 °F 105.2 °F 76.8 °F 61% 29.97 in 10.0 mi SE 3.5 mph - N/A   Scattered Clouds
4:15 PM 91.4 °F 103.8 °F 76.3 °F 61% 29.96 in 10.0 mi Calm Calm - N/A   Scattered Clouds
4:35 PM 92.1 °F 104.3 °F 75.9 °F 59% 29.96 in 10.0 mi WSW 3.5 mph - N/A   Clear
4:55 PM 92.1 °F 104.3 °F 75.9 °F 59% 29.95 in 10.0 mi Calm Calm - N/A   Scattered Clouds
5:15 PM 92.3 °F 104.8 °F 75.9 °F 59% 29.94 in 10.0 mi Calm Calm - N/A   Clear
5:35 PM 92.3 °F 104.8 °F 75.9 °F 59% 29.94 in 10.0 mi South 3.5 mph - N/A   Clear
5:55 PM 92.3 °F 105.5 °F 76.5 °F 60% 29.93 in 10.0 mi South 4.6 mph - N/A   Clear
6:15 PM 92.1 °F 104.3 °F 75.9 °F 59% 29.93 in 10.0 mi Calm Calm - N/A   Clear
6:35 PM 91.9 °F 104.5 °F 76.5 °F 60% 29.93 in 10.0 mi South 3.5 mph - N/A   Clear
6:55 PM 91.0 °F 102.9 °F 75.9 °F 61% 29.93 in 10.0 mi Calm Calm - N/A   Clear
7:15 PM 90.1 °F 104.3 °F 77.7 °F 67% 29.93 in 10.0 mi Calm Calm - N/A   Clear
7:35 PM 89.4 °F 103.6 °F 77.9 °F 69% 29.94 in 10.0 mi Calm Calm - N/A   Scattered Clouds
7:55 PM 88.3 °F 103.5 °F 79.0 °F 74% 29.95 in 10.0 mi Calm Calm - N/A   Scattered Clouds
8:15 PM 86.2 °F 99.8 °F 78.8 °F 79% 29.96 in 10.0 mi South 8.1 mph - N/A   Clear
8:35 PM 84.9 °F 96.1 °F 77.9 °F 79% 29.96 in 10.0 mi SSE 3.5 mph - N/A   Clear
8:55 PM 84.0 °F 94.8 °F 77.9 °F 82% 29.97 in 10.0 mi Calm Calm - N/A   Mostly Cloudy
9:15 PM 83.3 °F 93.5 °F 77.9 °F 84% 29.97 in 10.0 mi Calm Calm - N/A   Scattered Clouds
9:35 PM 82.4 °F 91.5 °F 77.7 °F 86% 29.97 in 10.0 mi Calm Calm - N/A   Scattered Clouds
9:55 PM 82.0 °F 90.2 °F 77.2 °F 85% 29.99 in 10.0 mi West 4.6 mph - N/A   Scattered Clouds
10:15 PM 81.9 °F 90.0 °F 77.2 °F 86% 29.99 in 10.0 mi Calm Calm - N/A   Scattered Clouds
10:35 PM 81.3 °F 88.7 °F 77.2 °F 87% 30.01 in 7.0 mi Calm Calm - N/A   Clear
10:55 PM 80.6 °F 86.9 °F 76.8 °F 88% 30.01 in 10.0 mi Calm Calm - N/A   Clear
11:15 PM 80.1 °F 85.7 °F 76.6 °F 89% 30.01 in 7.0 mi Calm Calm - N/A   Clear
11:35 PM 79.3 °F - 76.1 °F 90% 30.01 in 10.0 mi SSE 3.5 mph - N/A   Clear
11:55 PM 80.4 °F 85.8 °F 75.0 °F 84% 30.01 in 10.0 mi SE 3.5 mph - N/A   Clear